User: anonymous   Login
Location: Unspecified
(0.0000°N, 0.0000°E)
Time: 09:36:10
(UTC+02:00)
Language:

Gbstr 26 Del rocket - Orbit

View from above orbital plane
View from above orbital plane
View from above satellite
View from above satellite

Ground track
Ground track

The orbit data is extracted from the following two-line orbital elements,

1 25876U 99041E   17296.89079690 +.00000165 +00000-0 +70327-4 0  9999
2 25876 051.7629 169.0812 0531956 043.1970 320.9433 14.04132887932680
Epoch (UTC): 23 October 2017 21:22:44
Eccentricity: 0.0531956
inclination: 51.7629°
perigee height: 493 km
apogee height: 1265 km
right ascension of ascending node: 169.0812°
argument of perigee: 43.1970°
revolutions per day: 14.04132887
mean anomaly at epoch: 320.9433°
orbit number at epoch: 93268

The dashed part of the orbit path shows where the satellite is in the earth's shadow,  

DLR